,,PA_Meas_PMT16A,,PR_Meas_QMR101_102,,RH_Meas_QMH101,,SR_Meas_QMS101,,TA_Meas_QMH101,,GenWind,,GenWind,
time,status,PA,status,PR,status,RH,status,SR,status,TA,status,DirAvg,status,SpdAvg,
2011-12-18, 00:00:04,VALID,917.355,VALID,0,VALID,96.8479,VALID,0,VALID,20.3854,VALID,132,VALID,0.500391,
2011-12-18, 00:01:04,VALID,917.322,VALID,0,VALID,96.7793,VALID,0,VALID,20.3448,VALID,132,VALID,1.1875,
2011-12-18, 00:02:04,VALID,917.352,VALID,0,VALID,96.7335,VALID,0.107441,VALID,20.3643,VALID,132,VALID,1.16914,
2011-12-18, 00:03:04,VALID,917.342,VALID,0.2,VALID,96.7183,VALID,0,VALID,20.3643,VALID,132,VALID,1.14375,
2011-12-18, 00:04:04,VALID,917.348,VALID,0.4,VALID,96.7107,VALID,0.107441,VALID,20.3448,VALID,51,VALID,0.792188,
2011-12-18, 00:05:04,VALID,917.376,VALID,0,VALID,96.703,VALID,0.107441,VALID,20.3448,VALID,51,VALID,1.11133,
2011-12-18, 00:06:04,VALID,917.355,VALID,0.4,VALID,96.7564,VALID,0,VALID,20.3464,VALID,51,VALID,1.06484,
2011-12-18, 00:07:04,VALID,917.355,VALID,0.2,VALID,96.7259,VALID,0,VALID,20.3058,VALID,51,VALID,0.991016,
2011-12-18, 00:08:04,VALID,917.323,VALID,0.4,VALID,96.7488,VALID,0,VALID,20.3074,VALID,51,VALID,0.548047,
2011-12-18, 00:09:04,VALID,917.3,VALID,0.2,VALID,96.7945,VALID,0,VALID,20.2668,VALID,51,VALID,0.396484,
2011-12-18, 00:10:04,VALID,917.308,VALID,0.2,VALID,96.8098,VALID,0,VALID,20.2473,VALID,51,VALID,0.184766,
2011-12-18, 00:11:04,VALID,917.345,VALID,0,VALID,96.8326,VALID,0.107441,VALID,20.2668,VALID,51,VALID,0.503906,
2011-12-18, 00:12:04,VALID,917.309,VALID,0,VALID,96.8707,VALID,0,VALID,20.2473,VALID,51,VALID,0.544922,
2011-12-18, 00:13:04,VALID,917.334,VALID,0,VALID,96.886,VALID,0,VALID,20.2278,VALID,51,VALID,0.687891,
2011-12-18, 00:14:04,VALID,917.323,VALID,0.2,VALID,96.8707,VALID,0,VALID,20.2278,VALID,51,VALID,0.780469,
2011-12-18, 00:15:04,VALID,917.325,VALID,0.2,VALID,96.9317,VALID,0.107441,VALID,20.2489,VALID,51,VALID,0.196094,
2011-12-18, 00:16:04,VALID,917.339,VALID,0,VALID,96.9775,VALID,0,VALID,20.2473,VALID,51,VALID,0.516797,
2011-12-18, 00:17:04,VALID,917.318,VALID,0.6,VALID,96.947,VALID,0,VALID,20.2473,VALID,51,VALID,0.591406,
2011-12-18, 00:18:04,VALID,917.298,VALID,0.6,VALID,96.9622,VALID,0,VALID,20.2278,VALID,51,VALID,0.425781,
2011-12-18, 00:19:04,VALID,917.254,VALID,0.6,VALID,96.9698,VALID,0,VALID,20.2083,VALID,51,VALID,0.634375,
2011-12-18, 00:20:04,VALID,917.214,VALID,0.6,VALID,96.9546,VALID,0,VALID,20.2083,VALID,51,VALID,0.408594,
2011-12-18, 00:21:04,VALID,917.185,VALID,0.4,VALID,96.9775,VALID,0,VALID,20.1903,VALID,51,VALID,0.346875,
2011-12-18, 00:22:04,VALID,917.143,VALID,0.6,VALID,97.0003,VALID,0,VALID,20.1708,VALID,51,VALID,0.763281,
2011-12-18, 00:23:04,VALID,917.138,VALID,0.4,VALID,96.9622,VALID,0,VALID,20.1498,VALID,209,VALID,1.34141,
2011-12-18, 00:24:04,VALID,917.16,VALID,0.4,VALID,97.0232,VALID,0,VALID,20.1903,VALID,238,VALID,0.379297,
2011-12-18, 00:25:04,VALID,917.132,VALID,0.4,VALID,97.0461,VALID,0.107441,VALID,20.1693,VALID,238,VALID,0.00351562,
2011-12-18, 00:26:04,VALID,917.112,VALID,0.2,VALID,97.0232,VALID,0,VALID,20.1498,VALID,238,VALID,0.289453,
2011-12-18, 00:27:04,VALID,917.092,VALID,0.2,VALID,97.008,VALID,0.107441,VALID,20.1708,VALID,238,VALID,0.596484,
2011-12-18, 00:28:04,VALID,917.075,VALID,0.4,VALID,97.0385,VALID,0,VALID,20.1498,VALID,238,VALID,0.553906,
2011-12-18, 00:29:04,VALID,917.086,VALID,0,VALID,97.0613,VALID,0,VALID,20.1498,VALID,192,VALID,0.800781,
2011-12-18, 00:30:04,VALID,917.052,VALID,0.2,VALID,97.0308,VALID,0,VALID,20.1513,VALID,192,VALID,1.32187,
2011-12-18, 00:31:04,VALID,917.045,VALID,0,VALID,97.0385,VALID,0,VALID,20.1318,VALID,192,VALID,0.989453,
2011-12-18, 00:32:04,VALID,916.993,VALID,0.2,VALID,97.0156,VALID,0.107441,VALID,20.1108,VALID,192,VALID,0.653125,
2011-12-18, 00:33:04,VALID,916.986,VALID,0,VALID,97.0461,VALID,0,VALID,20.1108,VALID,191,VALID,0.075,
2011-12-18, 00:34:04,VALID,916.99,VALID,0,VALID,97.0766,VALID,0,VALID,20.1123,VALID,192,VALID,0.107813,
2011-12-18, 00:35:04,VALID,917.014,VALID,0,VALID,97.0613,VALID,0,VALID,20.1139,VALID,192,VALID,0.272656,
2011-12-18, 00:36:04,VALID,916.971,VALID,0,VALID,97.0537,VALID,0,VALID,20.0928,VALID,192,VALID,0.185547,
2011-12-18, 00:37:04,VALID,916.951,VALID,0,VALID,97.0918,VALID,0,VALID,20.1123,VALID,192,VALID,0,
2011-12-18, 00:38:04,VALID,916.942,VALID,0,VALID,97.1071,VALID,0,VALID,20.1334,VALID,192,VALID,0,
2011-12-18, 00:39:04,VALID,916.925,VALID,0,VALID,97.0842,VALID,0,VALID,20.1139,VALID,192,VALID,0,
2011-12-18, 00:40:04,VALID,916.898,VALID,0,VALID,97.1528,VALID,0,VALID,20.1123,VALID,192,VALID,0,
2011-12-18, 00:41:04,VALID,916.892,VALID,0,VALID,97.1223,VALID,0,VALID,20.1123,VALID,192,VALID,0,
2011-12-18, 00:42:04,VALID,916.857,VALID,0,VALID,97.1223,VALID,0,VALID,20.1334,VALID,192,VALID,0,
2011-12-18, 00:43:04,VALID,916.874,VALID,0.2,VALID,97.1452,VALID,0,VALID,20.1334,VALID,192,VALID,0,
2011-12-18, 00:44:04,VALID,916.858,VALID,0,VALID,97.1909,VALID,0,VALID,20.1529,VALID,192,VALID,0,
2011-12-18, 00:45:04,VALID,916.849,VALID,0,VALID,97.1909,VALID,0,VALID,20.1513,VALID,192,VALID,0,
2011-12-18, 00:46:04,VALID,916.783,VALID,0,VALID,97.2062,VALID,0,VALID,20.1513,VALID,192,VALID,0,
2011-12-18, 00:47:04,VALID,916.816,VALID,0,VALID,97.1376,VALID,0,VALID,20.1318,VALID,192,VALID,0,
2011-12-18, 00:48:04,VALID,916.793,VALID,0,VALID,97.1223,VALID,0,VALID,20.1318,VALID,191,VALID,0,
2011-12-18, 00:49:04,VALID,916.803,VALID,0,VALID,97.1528,VALID,0,VALID,20.1513,VALID,192,VALID,0,
2011-12-18, 00:50:04,VALID,916.765,VALID,0,VALID,97.1452,VALID,0,VALID,20.1108,VALID,191,VALID,0,
2011-12-18, 00:51:04,VALID,916.775,VALID,0,VALID,97.1681,VALID,0,VALID,20.1318,VALID,192,VALID,0.539844,
2011-12-18, 00:52:04,VALID,916.726,VALID,0,VALID,97.1681,VALID,0,VALID,20.1108,VALID,191,VALID,0.548047,
2011-12-18, 00:53:04,VALID,916.688,VALID,0,VALID,97.1452,VALID,0,VALID,20.1108,VALID,192,VALID,0.705078,
2011-12-18, 00:54:04,VALID,916.678,VALID,0,VALID,97.1376,VALID,0,VALID,20.1123,VALID,192,VALID,0.858594,
2011-12-18, 00:55:04,VALID,916.662,VALID,0,VALID,97.1452,VALID,0,VALID,20.0718,VALID,192,VALID,0.739453,
2011-12-18, 00:56:04,VALID,916.631,VALID,0,VALID,97.1757,VALID,0,VALID,20.0928,VALID,192,VALID,0.727344,
2011-12-18, 00:57:04,VALID,916.657,VALID,0,VALID,97.1528,VALID,0,VALID,20.0718,VALID,192,VALID,0.836719,
2011-12-18, 00:58:04,VALID,916.637,VALID,0,VALID,97.1909,VALID,0,VALID,20.0523,VALID,192,VALID,0.656641,
2011-12-18, 00:59:04,VALID,916.645,VALID,0,VALID,97.1986,VALID,0,VALID,20.0523,VALID,192,VALID,0.669531,
2011-12-18, 01:00:04,VALID,916.611,VALID,0,VALID,97.2062,VALID,0,VALID,20.0523,VALID,192,VALID,0.635547,
2011-12-18, 01:01:04,VALID,916.577,VALID,0,VALID,97.2367,VALID,0,VALID,20.0733,VALID,192,VALID,0.710938,
2011-12-18, 01:02:04,VALID,916.555,VALID,0,VALID,97.2214,VALID,0.107441,VALID,20.0328,VALID,192,VALID,1.13008,
2011-12-18, 01:03:04,VALID,916.54,VALID,0,VALID,97.2138,VALID,0,VALID,20.0523,VALID,192,VALID,1.02383,
2011-12-18, 01:04:04,VALID,916.567,VALID,0,VALID,97.2595,VALID,0,VALID,20.0538,VALID,192,VALID,0.429688,
2011-12-18, 01:05:04,VALID,916.573,VALID,0,VALID,97.2977,VALID,0,VALID,20.0538,VALID,192,VALID,0.234375,
2011-12-18, 01:06:04,VALID,916.556,VALID,0,VALID,97.2748,VALID,0,VALID,20.0538,VALID,192,VALID,0.534375,
2011-12-18, 01:07:04,VALID,916.543,VALID,0,VALID,97.2595,VALID,0,VALID,20.0553,VALID,192,VALID,0.562891,
2011-12-18, 01:08:04,VALID,916.543,VALID,0,VALID,97.2977,VALID,0,VALID,20.0749,VALID,192,VALID,0.784766,
2011-12-18, 01:09:04,VALID,916.559,VALID,0,VALID,97.29,VALID,0,VALID,20.0553,VALID,192,VALID,0.568359,
2011-12-18, 01:10:04,VALID,916.538,VALID,0,VALID,97.2824,VALID,0,VALID,20.0148,VALID,192,VALID,0.960938,
2011-12-18, 01:11:04,VALID,916.554,VALID,0,VALID,97.2977,VALID,0,VALID,20.0343,VALID,192,VALID,0.601563,
2011-12-18, 01:12:04,VALID,916.525,VALID,0,VALID,97.29,VALID,0,VALID,20.0358,VALID,192,VALID,1.03281,
2011-12-18, 01:13:04,VALID,916.517,VALID,0,VALID,97.3281,VALID,0,VALID,20.0148,VALID,192,VALID,0.703125,
2011-12-18, 01:14:04,VALID,916.468,VALID,0,VALID,97.3205,VALID,0,VALID,20.0148,VALID,192,VALID,0.486328,
2011-12-18, 01:15:04,VALID,916.48,VALID,0,VALID,97.3281,VALID,0,VALID,20.0343,VALID,192,VALID,0.230859,
2011-12-18, 01:16:04,VALID,916.493,VALID,0,VALID,97.3586,VALID,0,VALID,20.0553,VALID,192,VALID,0.0484375,
2011-12-18, 01:17:04,VALID,916.482,VALID,0,VALID,97.3358,VALID,0,VALID,20.0358,VALID,192,VALID,0.626172,
2011-12-18, 01:18:04,VALID,916.47,VALID,0,VALID,97.3434,VALID,0,VALID,19.9953,VALID,192,VALID,0.870703,
2011-12-18, 01:19:04,VALID,916.469,VALID,0,VALID,97.3358,VALID,0,VALID,20.0133,VALID,192,VALID,0.849609,
2011-12-18, 01:20:04,VALID,916.439,VALID,0,VALID,97.351,VALID,0,VALID,20.0148,VALID,192,VALID,0.467969,
2011-12-18, 01:21:04,VALID,916.43,VALID,0,VALID,97.3434,VALID,0,VALID,20.0343,VALID,192,VALID,0.935156,
2011-12-18, 01:22:04,VALID,916.406,VALID,0,VALID,97.3281,VALID,0,VALID,20.0148,VALID,192,VALID,0.904297,
2011-12-18, 01:23:04,VALID,916.386,VALID,0,VALID,97.3129,VALID,0,VALID,19.9953,VALID,192,VALID,0.346875,
2011-12-18, 01:24:04,VALID,916.36,VALID,0,VALID,97.29,VALID,0,VALID,19.9743,VALID,192,VALID,1.17695,
2011-12-18, 01:25:04,VALID,916.372,VALID,0,VALID,97.29,VALID,0,VALID,19.9953,VALID,192,VALID,0.755078,
2011-12-18, 01:26:04,VALID,916.367,VALID,0,VALID,97.3053,VALID,0,VALID,19.9743,VALID,192,VALID,0.741406,
2011-12-18, 01:27:04,VALID,916.338,VALID,0,VALID,97.3205,VALID,0,VALID,19.9938,VALID,192,VALID,0.384375,
2011-12-18, 01:28:04,VALID,916.361,VALID,0,VALID,97.2977,VALID,0,VALID,20.0148,VALID,192,VALID,0.991406,
2011-12-18, 01:29:04,VALID,916.34,VALID,0,VALID,97.29,VALID,0,VALID,19.9938,VALID,192,VALID,0.711719,
2011-12-18, 01:30:04,VALID,916.327,VALID,0.2,VALID,97.2595,VALID,0,VALID,19.9743,VALID,192,VALID,0.824609,
2011-12-18, 01:31:04,VALID,916.32,VALID,0,VALID,97.2443,VALID,0,VALID,19.9938,VALID,192,VALID,0.674609,
2011-12-18, 01:32:04,VALID,916.325,VALID,0,VALID,97.2062,VALID,0,VALID,19.9938,VALID,192,VALID,1.23398,
2011-12-18, 01:33:04,VALID,916.32,VALID,0,VALID,97.1986,VALID,0,VALID,20.0133,VALID,192,VALID,0.327344,
2011-12-18, 01:34:04,VALID,916.278,VALID,0,VALID,97.1986,VALID,0.107441,VALID,20.0328,VALID,192,VALID,0.366797,
2011-12-18, 01:35:04,VALID,916.277,VALID,0,VALID,97.1604,VALID,0,VALID,20.0538,VALID,192,VALID,0.228906,
2011-12-18, 01:36:04,VALID,916.273,VALID,0,VALID,97.1376,VALID,0,VALID,20.0328,VALID,192,VALID,0.194141,
2011-12-18, 01:37:04,VALID,916.262,VALID,0,VALID,97.1376,VALID,0,VALID,20.0133,VALID,192,VALID,0.364844,
2011-12-18, 01:38:04,VALID,916.275,VALID,0,VALID,97.1452,VALID,0,VALID,20.0343,VALID,192,VALID,0.421875,
2011-12-18, 01:39:04,VALID,916.266,VALID,0,VALID,97.0918,VALID,0,VALID,20.0133,VALID,192,VALID,0.899609,
2011-12-18, 01:40:04,VALID,916.261,VALID,0,VALID,97.0918,VALID,0,VALID,20.0343,VALID,192,VALID,0.833594,
2011-12-18, 01:41:04,VALID,916.253,VALID,0,VALID,97.0918,VALID,0,VALID,20.0328,VALID,192,VALID,0.546094,
2011-12-18, 01:42:04,VALID,916.235,VALID,0,VALID,97.0766,VALID,0,VALID,20.0328,VALID,192,VALID,0.510156,
2011-12-18, 01:43:04,VALID,916.206,VALID,0,VALID,97.069,VALID,0,VALID,20.0328,VALID,192,VALID,0.405859,
2011-12-18, 01:44:04,VALID,916.212,VALID,0,VALID,97.069,VALID,0,VALID,20.0538,VALID,192,VALID,0.760938,
2011-12-18, 01:45:04,VALID,916.202,VALID,0,VALID,97.0537,VALID,0,VALID,20.0538,VALID,192,VALID,0.890625,
2011-12-18, 01:46:04,VALID,916.196,VALID,0,VALID,97.0613,VALID,0,VALID,20.0733,VALID,192,VALID,0.947656,
2011-12-18, 01:47:04,VALID,916.199,VALID,0,VALID,97.0613,VALID,0,VALID,20.0328,VALID,192,VALID,1.06289,
2011-12-18, 01:48:04,VALID,916.202,VALID,0,VALID,97.0613,VALID,0,VALID,20.0538,VALID,192,VALID,0.951953,
2011-12-18, 01:49:04,VALID,916.184,VALID,0,VALID,97.0994,VALID,0,VALID,20.0523,VALID,192,VALID,0.00585938,
2011-12-18, 01:50:04,VALID,916.171,VALID,0,VALID,97.0842,VALID,0,VALID,20.0523,VALID,192,VALID,0.417969,
2011-12-18, 01:51:04,VALID,916.163,VALID,0.2,VALID,97.0918,VALID,0,VALID,20.0718,VALID,192,VALID,0.204688,
2011-12-18, 01:52:04,VALID,916.217,VALID,0,VALID,97.0918,VALID,0,VALID,20.0523,VALID,192,VALID,0,
2011-12-18, 01:53:04,VALID,916.173,VALID,0,VALID,97.0918,VALID,0,VALID,20.0523,VALID,192,VALID,0.592578,
2011-12-18, 01:54:04,VALID,916.129,VALID,0.4,VALID,97.0918,VALID,0,VALID,20.0523,VALID,192,VALID,0.511719,
2011-12-18, 01:55:04,VALID,916.107,VALID,0.4,VALID,97.1071,VALID,0,VALID,20.0523,VALID,192,VALID,1.20781,
2011-12-18, 01:56:04,VALID,916.065,VALID,0.4,VALID,97.1147,VALID,0.107441,VALID,20.0718,VALID,192,VALID,0.8875,
2011-12-18, 01:57:04,VALID,916.037,VALID,0.2,VALID,97.1452,VALID,0.107441,VALID,20.0718,VALID,192,VALID,1.08672,
2011-12-18, 01:58:04,VALID,915.989,VALID,0.2,VALID,97.1604,VALID,0,VALID,20.0718,VALID,159,VALID,0.9875,
2011-12-18, 01:59:04,VALID,915.982,VALID,0,VALID,97.1528,VALID,0.107441,VALID,20.0913,VALID,166,VALID,1.0418,
2011-12-18, 02:00:04,VALID,915.941,VALID,0.2,VALID,97.1833,VALID,0.107441,VALID,20.0913,VALID,166,VALID,0.710547,
2011-12-18, 02:01:04,VALID,915.919,VALID,0,VALID,97.1909,VALID,0.107441,VALID,20.0913,VALID,166,VALID,0.484766,
2011-12-18, 02:02:04,VALID,915.924,VALID,0,VALID,97.1833,VALID,0.107441,VALID,20.0913,VALID,166,VALID,0.620313,
2011-12-18, 02:03:04,VALID,915.881,VALID,0,VALID,97.1604,VALID,0,VALID,20.0913,VALID,166,VALID,0.445703,
2011-12-18, 02:04:04,VALID,915.877,VALID,0,VALID,97.1909,VALID,0.107441,VALID,20.0913,VALID,166,VALID,1.50586,
2011-12-18, 02:05:04,VALID,915.841,VALID,0,VALID,97.1681,VALID,0.107441,VALID,20.0718,VALID,166,VALID,1.26016,
2011-12-18, 02:06:04,VALID,915.879,VALID,0,VALID,97.1986,VALID,0,VALID,20.0913,VALID,166,VALID,0.732031,
2011-12-18, 02:07:04,VALID,915.846,VALID,0,VALID,97.1909,VALID,0.107441,VALID,20.0718,VALID,166,VALID,0.380859,
2011-12-18, 02:08:04,VALID,915.841,VALID,0,VALID,97.2214,VALID,0.107441,VALID,20.0718,VALID,166,VALID,0.864844,
2011-12-18, 02:09:04,VALID,915.79,VALID,0,VALID,97.229,VALID,0.107441,VALID,20.0718,VALID,166,VALID,0.801953,
2011-12-18, 02:10:04,VALID,915.811,VALID,0,VALID,97.2519,VALID,0.107441,VALID,20.0718,VALID,166,VALID,0.0398437,
2011-12-18, 02:11:04,VALID,915.798,VALID,0,VALID,97.2443,VALID,0,VALID,20.0718,VALID,166,VALID,0.762109,
2011-12-18, 02:12:04,VALID,915.776,VALID,0,VALID,97.2595,VALID,0.107441,VALID,20.0718,VALID,166,VALID,0.775391,
2011-12-18, 02:13:04,VALID,915.769,VALID,0,VALID,97.2824,VALID,0.107441,VALID,20.0718,VALID,166,VALID,0.312891,
2011-12-18, 02:14:04,VALID,915.76,VALID,0,VALID,97.29,VALID,0,VALID,20.0928,VALID,166,VALID,0.197266,
2011-12-18, 02:15:04,VALID,915.748,VALID,0,VALID,97.2824,VALID,0.107441,VALID,20.0523,VALID,164,VALID,0.600391,
2011-12-18, 02:16:04,VALID,915.727,VALID,0,VALID,97.3129,VALID,0,VALID,20.0928,VALID,160,VALID,0.655859,
2011-12-18, 02:17:04,VALID,915.728,VALID,0,VALID,97.3053,VALID,0,VALID,20.0718,VALID,159,VALID,0.326953,
2011-12-18, 02:18:04,VALID,915.689,VALID,0,VALID,97.3129,VALID,0,VALID,20.0718,VALID,159,VALID,0.328125,
2011-12-18, 02:19:04,VALID,915.701,VALID,0,VALID,97.2748,VALID,0,VALID,20.0718,VALID,159,VALID,0.464063,
2011-12-18, 02:20:04,VALID,915.725,VALID,0,VALID,97.3129,VALID,0.107441,VALID,20.0718,VALID,159,VALID,0,
2011-12-18, 02:21:04,VALID,915.7,VALID,0,VALID,97.3053,VALID,0,VALID,20.0718,VALID,159,VALID,0.480469,
2011-12-18, 02:22:04,VALID,915.673,VALID,0,VALID,97.2824,VALID,0.107441,VALID,20.0523,VALID,159,VALID,0.836719,
2011-12-18, 02:23:04,VALID,915.695,VALID,0,VALID,97.29,VALID,0,VALID,20.0328,VALID,159,VALID,0.466797,
2011-12-18, 02:24:04,VALID,915.675,VALID,0,VALID,97.2672,VALID,0,VALID,20.0328,VALID,159,VALID,0.183203,
2011-12-18, 02:25:04,VALID,915.68,VALID,0,VALID,97.2977,VALID,0.107441,VALID,20.0133,VALID,159,VALID,0.517969,
2011-12-18, 02:26:04,VALID,915.671,VALID,0,VALID,97.2977,VALID,0,VALID,20.0133,VALID,159,VALID,0.448828,
2011-12-18, 02:27:04,VALID,915.658,VALID,0,VALID,97.3205,VALID,0,VALID,20.0133,VALID,159,VALID,0.0582031,
2011-12-18, 02:28:04,VALID,915.642,VALID,0,VALID,97.2977,VALID,0.107441,VALID,20.0133,VALID,159,VALID,0.340625,
2011-12-18, 02:29:04,VALID,915.684,VALID,0,VALID,97.3053,VALID,0,VALID,20.0133,VALID,159,VALID,0.0570313,
2011-12-18, 02:30:04,VALID,915.635,VALID,0,VALID,97.3053,VALID,0,VALID,19.9923,VALID,159,VALID,0.433984,
2011-12-18, 02:31:04,VALID,915.638,VALID,0,VALID,97.3053,VALID,0,VALID,19.9938,VALID,159,VALID,0.412891,
2011-12-18, 02:32:04,VALID,915.628,VALID,0,VALID,97.3053,VALID,0,VALID,19.9548,VALID,159,VALID,0,
2011-12-18, 02:33:04,VALID,915.615,VALID,0,VALID,97.3129,VALID,0,VALID,19.9743,VALID,159,VALID,0,
2011-12-18, 02:34:04,VALID,915.626,VALID,0,VALID,97.3129,VALID,0,VALID,19.9548,VALID,159,VALID,0,
2011-12-18, 02:35:04,VALID,915.571,VALID,0,VALID,97.3053,VALID,0,VALID,19.9743,VALID,159,VALID,0,
2011-12-18, 02:36:04,VALID,915.588,VALID,0,VALID,97.3053,VALID,0,VALID,19.9743,VALID,159,VALID,0,
2011-12-18, 02:37:04,VALID,915.602,VALID,0,VALID,97.3281,VALID,0,VALID,19.9548,VALID,159,VALID,0,
2011-12-18, 02:38:04,VALID,915.566,VALID,0,VALID,97.3281,VALID,0.107441,VALID,19.9548,VALID,159,VALID,0,
2011-12-18, 02:39:04,VALID,915.554,VALID,0,VALID,97.3281,VALID,0.107441,VALID,19.9548,VALID,159,VALID,0,
2011-12-18, 02:40:04,VALID,915.511,VALID,0,VALID,97.3434,VALID,0,VALID,19.9548,VALID,159,VALID,0,
2011-12-18, 02:41:04,VALID,915.545,VALID,0,VALID,97.3281,VALID,0,VALID,19.9548,VALID,159,VALID,0,
2011-12-18, 02:42:04,VALID,915.525,VALID,0,VALID,97.351,VALID,0.107441,VALID,19.9548,VALID,159,VALID,0,
2011-12-18, 02:43:04,VALID,915.521,VALID,0,VALID,97.3739,VALID,0,VALID,19.9338,VALID,159,VALID,0,
2011-12-18, 02:44:04,VALID,915.492,VALID,0,VALID,97.351,VALID,0,VALID,19.9353,VALID,159,VALID,0,
2011-12-18, 02:45:04,VALID,915.512,VALID,0,VALID,97.3434,VALID,0,VALID,19.9353,VALID,159,VALID,0,
2011-12-18, 02:46:04,VALID,915.51,VALID,0,VALID,97.3586,VALID,0,VALID,19.9143,VALID,159,VALID,0,
2011-12-18, 02:47:04,VALID,915.507,VALID,0,VALID,97.351,VALID,0.107441,VALID,19.9158,VALID,159,VALID,0,
2011-12-18, 02:48:04,VALID,915.504,VALID,0,VALID,97.3586,VALID,0.107441,VALID,19.9158,VALID,159,VALID,0.413281,
2011-12-18, 02:49:04,VALID,915.522,VALID,0,VALID,97.3586,VALID,0,VALID,19.8978,VALID,159,VALID,0.473047,
2011-12-18, 02:50:04,VALID,915.47,VALID,0,VALID,97.3739,VALID,0,VALID,19.9173,VALID,159,VALID,0.226172,
2011-12-18, 02:51:04,VALID,915.445,VALID,0,VALID,97.3815,VALID,0,VALID,19.9173,VALID,159,VALID,0.43125,
2011-12-18, 02:52:04,VALID,915.459,VALID,0,VALID,97.3815,VALID,0,VALID,19.9173,VALID,159,VALID,0.473047,
2011-12-18, 02:53:04,VALID,915.396,VALID,0,VALID,97.3891,VALID,0,VALID,19.8978,VALID,159,VALID,0.569141,
2011-12-18, 02:54:04,VALID,915.414,VALID,0,VALID,97.3891,VALID,0,VALID,19.9368,VALID,159,VALID,0.519141,
2011-12-18, 02:55:04,VALID,915.414,VALID,0,VALID,97.412,VALID,0,VALID,19.9368,VALID,159,VALID,0.349219,
2011-12-18, 02:56:04,VALID,915.402,VALID,0,VALID,97.4273,VALID,0,VALID,19.9368,VALID,159,VALID,0.288281,
2011-12-18, 02:57:04,VALID,915.371,VALID,0,VALID,97.412,VALID,0,VALID,19.9563,VALID,159,VALID,0.00976563,
2011-12-18, 02:58:04,VALID,915.395,VALID,0,VALID,97.4349,VALID,0,VALID,19.9758,VALID,159,VALID,0.355469,
2011-12-18, 02:59:04,VALID,915.384,VALID,0,VALID,97.4501,VALID,0,VALID,19.9953,VALID,159,VALID,0.0101562,
2011-12-18, 03:00:04,VALID,915.401,VALID,0,VALID,97.4425,VALID,0,VALID,19.9968,VALID,159,VALID,0.205469,
2011-12-18, 03:01:04,VALID,915.371,VALID,0,VALID,97.4501,VALID,0,VALID,19.9953,VALID,159,VALID,0.430469,
2011-12-18, 03:02:04,VALID,915.392,VALID,0,VALID,97.4196,VALID,0,VALID,19.9953,VALID,158,VALID,1.01523,
2011-12-18, 03:03:04,VALID,915.399,VALID,0,VALID,97.4196,VALID,0,VALID,19.9953,VALID,157,VALID,0.828125,
2011-12-18, 03:04:04,VALID,915.399,VALID,0,VALID,97.4196,VALID,0,VALID,19.9953,VALID,157,VALID,0.883984,
2011-12-18, 03:05:04,VALID,915.399,VALID,0,VALID,97.4196,VALID,0,VALID,19.9953,VALID,156,VALID,0.453516,
2011-12-18, 03:06:04,VALID,915.394,VALID,0,VALID,97.412,VALID,0,VALID,20.0148,VALID,156,VALID,0.442969,
2011-12-18, 03:07:04,VALID,915.403,VALID,0,VALID,97.4196,VALID,0,VALID,19.9953,VALID,156,VALID,0.392188,
2011-12-18, 03:08:04,VALID,915.421,VALID,0,VALID,97.412,VALID,0,VALID,19.9953,VALID,156,VALID,0.253125,
2011-12-18, 03:09:04,VALID,915.425,VALID,0,VALID,97.4044,VALID,0,VALID,19.9953,VALID,156,VALID,0,
2011-12-18, 03:10:04,VALID,915.431,VALID,0,VALID,97.4349,VALID,0,VALID,19.9953,VALID,156,VALID,0,
2011-12-18, 03:11:04,VALID,915.449,VALID,0,VALID,97.4273,VALID,0,VALID,19.9953,VALID,156,VALID,0,
2011-12-18, 03:12:04,VALID,915.415,VALID,0,VALID,97.4349,VALID,0,VALID,20.0148,VALID,156,VALID,0,
2011-12-18, 03:13:04,VALID,915.414,VALID,0,VALID,97.4501,VALID,0,VALID,19.9953,VALID,156,VALID,0,
2011-12-18, 03:14:04,VALID,915.418,VALID,0,VALID,97.4501,VALID,0,VALID,20.0148,VALID,156,VALID,0.0617188,
2011-12-18, 03:15:04,VALID,915.412,VALID,0,VALID,97.4654,VALID,0,VALID,20.0148,VALID,156,VALID,0.251172,
2011-12-18, 03:16:04,VALID,915.389,VALID,0,VALID,97.4577,VALID,0,VALID,20.0148,VALID,156,VALID,0.521875,
2011-12-18, 03:17:04,VALID,915.377,VALID,0,VALID,97.4425,VALID,0,VALID,20.0148,VALID,156,VALID,0.404687,
2011-12-18, 03:18:04,VALID,915.393,VALID,0,VALID,97.4349,VALID,0,VALID,20.0148,VALID,156,VALID,0.458594,
2011-12-18, 03:19:04,VALID,915.348,VALID,0,VALID,97.4501,VALID,0,VALID,20.0343,VALID,156,VALID,0.677344,
2011-12-18, 03:20:04,VALID,915.376,VALID,0,VALID,97.4425,VALID,0,VALID,20.0343,VALID,154,VALID,0.866016,
2011-12-18, 03:21:04,VALID,915.355,VALID,0,VALID,97.4425,VALID,0,VALID,20.0343,VALID,149,VALID,0.745703,
2011-12-18, 03:22:04,VALID,915.357,VALID,0,VALID,97.4425,VALID,0,VALID,20.0148,VALID,149,VALID,0.79375,
2011-12-18, 03:23:04,VALID,915.356,VALID,0,VALID,97.4425,VALID,0,VALID,20.0343,VALID,149,VALID,0.726953,
2011-12-18, 03:24:04,VALID,915.349,VALID,0,VALID,97.4349,VALID,0,VALID,20.0343,VALID,149,VALID,0.702734,
2011-12-18, 03:25:04,VALID,915.316,VALID,0,VALID,97.4425,VALID,0,VALID,20.0343,VALID,149,VALID,1.09961,
2011-12-18, 03:26:04,VALID,915.3,VALID,0,VALID,97.4349,VALID,0,VALID,20.0148,VALID,149,VALID,0.496484,
2011-12-18, 03:27:04,VALID,915.286,VALID,0,VALID,97.4425,VALID,0,VALID,20.0343,VALID,149,VALID,0.738672,
2011-12-18, 03:28:04,VALID,915.275,VALID,0,VALID,97.4349,VALID,0,VALID,20.0343,VALID,149,VALID,0.601953,
2011-12-18, 03:29:04,VALID,915.282,VALID,0,VALID,97.4425,VALID,0,VALID,20.0343,VALID,149,VALID,0.188281,
2011-12-18, 03:30:04,VALID,915.301,VALID,0,VALID,97.4273,VALID,0,VALID,20.0343,VALID,149,VALID,0.69375,
2011-12-18, 03:31:04,VALID,915.259,VALID,0,VALID,97.4196,VALID,0,VALID,20.0148,VALID,149,VALID,0.814453,
2011-12-18, 03:32:04,VALID,915.263,VALID,0,VALID,97.4501,VALID,0,VALID,20.0343,VALID,149,VALID,0.414844,
2011-12-18, 03:33:04,VALID,915.261,VALID,0,VALID,97.4273,VALID,0,VALID,20.0148,VALID,149,VALID,0.830469,
2011-12-18, 03:34:04,VALID,915.286,VALID,0,VALID,97.4349,VALID,0.107441,VALID,20.0148,VALID,149,VALID,0.810938,
2011-12-18, 03:35:04,VALID,915.273,VALID,0.2,VALID,97.3891,VALID,0.107441,VALID,20.0148,VALID,125,VALID,0.899609,
2011-12-18, 03:36:04,VALID,915.261,VALID,0,VALID,97.412,VALID,0,VALID,19.9938,VALID,126,VALID,0.942969,
2011-12-18, 03:37:04,VALID,915.28,VALID,0,VALID,97.4273,VALID,0.107441,VALID,19.9743,VALID,125,VALID,0.471875,
2011-12-18, 03:38:04,VALID,915.253,VALID,0,VALID,97.4273,VALID,0,VALID,19.9938,VALID,125,VALID,0.732813,
2011-12-18, 03:39:04,VALID,915.245,VALID,0,VALID,97.412,VALID,0,VALID,19.9938,VALID,125,VALID,0.7875,
2011-12-18, 03:40:04,VALID,915.254,VALID,0,VALID,97.4273,VALID,0.107441,VALID,19.9728,VALID,125,VALID,0.612109,
2011-12-18, 03:41:04,VALID,915.252,VALID,0,VALID,97.4196,VALID,0.107441,VALID,19.9743,VALID,125,VALID,1.1082,
2011-12-18, 03:42:04,VALID,915.19,VALID,0,VALID,97.4349,VALID,0.107441,VALID,19.9743,VALID,127,VALID,1.13555,
2011-12-18, 03:43:04,VALID,915.19,VALID,0,VALID,97.4044,VALID,0,VALID,19.9548,VALID,127,VALID,0.923437,